sat.trackr.live / text

‹ back to catalog

STARLINK-35231

NORAD 65849 · 2025-221AC

PAYLOAD ACTIVE UNKNOWN

§ Identity

Operator
Country
US
Launch date
2025-09-29
Launch site
AFWTR
Launch vehicle
Mass (kg)
RCS (m²)

Purposes: comms

External: N2YO · Heavens-Above · Gunter

§ Orbital elements

Epoch: 2026-09-20T11:18:37.680480Z

Period
93.85 min
Inclination
53.1631°
Eccentricity
0.0000926
Mean motion
15.34400885 rev/d
Perigee alt
462.1 km
Apogee alt
463.3 km
Semi-major
6,840.8 km
B*
5.9495e-4
RAAN
261.5979°
Arg perigee
48.3651°
Mean anomaly
311.7431°
Rev number
5,593

§ Raw data

STARLINK-352311 65849U 25221AC  26263.47126945  .00019779  00000+0  59495-3 0  99982 65849  53.1631 261.5979 0000926  48.3651 311.7431 15.34400885 55936

JSON: /api/v1/satellites/65849 · /tle

For live sub-satellite position, see the globe view (requires WebGL).

§ Visibility from observer

Set your observer location to see the next 7 days of passes ≥ 10°. The values pass through the URL so the page stays shareable.

No JS? Fill the form by hand. The geolocation button needs JavaScript.